Location: Unspecified
(48.8656°N, 0.0000°E)
Time: 10:04:42
(UTC+00:00)

Vanguard 3 - Pass Details

Date: 25 June 2019
Orbit: 507 x 3264 km, 33.4° (Epoch: 18 July)

Event Time Altitude Azimuth Distance (km) Brightness Sun altitude
Rises 10:28:04 0° 230° (SW) 6,793 11.8 58.4°
Reaches altitude 10° 10:33:51 10° 221° (SW) 5,408 11.5 59.1°
Maximum altitude 10:45:34 29° 170° (S) 3,104 11.1 60.3°
Drops below altitude 10° 10:53:18 10° 115° (ESE) 3,505 10.9 61.1°
Sets 10:56:08 0° 104° (ESE) 4,139 11.1 61.3°
